Temp
29 29 28 27 28 29 29 29 28 28 28 28 27 26 25 24 24 26 27 26 24 25 25 25 25 25 26 26 26 25 24 24 25 25 26 26 26 25 25 25 24 25 24 24 25 25 25 25 24 24 23 23 23 23 22 21 21 20 20 20 20 20 20 20 19 19 19 19 19 19 19 19 19 19 19 20 20 21 21 21 21 21 22 22 22 22
28 27 27 28 29 29 29 28 28 27 28 28 27 26 25 25 25 27 27 25 24 25 25 24 24 25 26 25 25 25 25 25 25 25 26 26 25 24 24 24 24 24 24 24 24 24 24 24 23 23 23 23 22 21 21 21 21 20 20 20 20 21 20 20 20 20 20 20 20 19 19 19 19 19 19 19 20 21 21 21 21 21 22 22 22 23
27 27 29 29 28 27 28 27 27 27 28 27 26 25 24 25 26 26 25 24 23 25 26 25 25 26 26 25 25 25 25 25 24 25 25 25 25 24 24 23 23 24 24 24 23 22 23 23 23 22 22 23 22 21 21 21 21 20 20 20 20 21 21 21 20 20 20 20 20 20 19 19 20 19 19 19 20 20 21 21 21 21 22 22 22 23
25 27 30 29 27 28 28 27 27 27 27 27 26 24 24 25 25 25 25 24 24 25 25 25 25 27 27 26 24 24 24 23 22 23 22 22 23 23 22 21 22 23 23 24 23 22 21 22 22 22 22 22 21 21 21 21 21 20 20 20 20 21 21 21 21 20 20 20 20 20 19 19 20 19 19 19 20 20 20 21 21 21 22 22 22 23
27 29 30 29 28 29 29 28 28 27 26 27 27 25 25 26 25 25 25 24 25 24 25 26 24 25 27 26 25 23 23 23 22 23 22 22 21 21 21 20 20 21 22 22 22 21 21 21 21 21 21 21 21 21 21 21 20 20 20 20 20 21 21 22 21 20 20 20 19 19 19 19 19 19 19 19 19 19 20 21 21 21 22 22 22 23
29 29 28 29 29 28 28 28 28 27 26 26 28 28 28 28 27 25 25 24 23 23 25 26 22 23 26 26 26 25 24 24 23 24 24 23 21 20 20 20 20 21 21 21 21 21 21 21 21 21 21 21 21 21 21 21 21 21 20 20 20 21 21 22 21 21 20 19 19 19 19 19 19 19 19 19 19 19 20 21 21 21 22 22 22 22
29 29 29 29 29 28 28 27 27 28 25 24 28 30 28 28 27 25 25 24 22 22 24 26 23 22 24 26 26 25 26 26 24 24 25 23 21 20 20 20 20 21 21 21 21 21 21 21 20 20 21 21 21 21 21 21 21 21 21 20 20 20 21 21 21 21 20 20 19 19 19 19 19 19 19 19 19 20 20 21 21 22 21 22 22 22
30 30 30 30 29 28 27 28 28 28 26 25 28 30 28 28 28 26 25 24 23 23 24 25 24 22 22 24 24 24 25 26 25 26 26 24 22 21 21 21 20 21 21 21 20 20 21 20 20 20 20 20 20 21 21 21 21 21 20 20 20 20 20 21 21 20 21 20 20 19 19 19 19 19 19 19 19 20 20 21 21 22 22 21 21 22
30 31 31 31 29 28 29 30 29 27 28 28 28 28 28 28 27 25 25 24 24 23 22 23 24 22 22 23 24 23 25 25 26 27 26 26 24 22 21 21 21 21 21 21 20 20 20 20 20 20 20 21 20 21 21 21 21 20 20 20 20 20 20 20 20 20 20 21 20 19 19 19 19 19 19 20 19 19 20 21 21 22 22 21 21 22
30 30 31 31 30 30 31 32 29 28 30 28 26 27 27 26 26 26 25 24 24 23 22 22 23 22 22 23 24 23 24 25 27 27 26 25 24 22 21 21 21 21 20 20 20 20 20 20 20 20 20 20 20 20 20 21 21 20 20 20 20 20 20 20 20 20 20 20 20 20 19 19 19 19 19 19 20 20 20 20 21 21 21 21 21 22
30 29 29 30 31 31 32 31 28 28 29 28 27 28 27 26 27 27 26 25 23 22 22 22 23 23 22 23 23 24 25 25 27 27 26 25 24 23 21 20 21 21 20 20 20 20 20 20 20 20 20 20 20 21 21 21 21 20 20 20 19 19 20 20 20 20 20 20 20 20 20 19 19 19 19 19 20 20 20 20 21 21 22 22 22 22
29 29 29 30 30 31 32 31 28 28 28 29 30 29 26 25 25 25 24 24 22 21 22 22 22 23 21 22 24 25 25 25 26 27 27 27 25 23 22 20 20 21 20 20 20 20 20 20 20 20 20 20 20 20 20 20 20 20 20 20 19 19 20 20 20 20 20 20 20 20 20 19 19 19 19 20 20 20 20 20 21 21 22 22 22 22
30 31 30 30 30 31 32 31 29 29 29 30 29 26 23 22 22 22 22 22 22 22 22 22 22 22 22 24 25 26 26 26 25 26 26 26 25 23 22 21 20 20 20 20 20 20 20 20 20 20 19 20 20 20 20 20 20 20 20 20 19 19 20 20 20 20 20 20 20 20 20 19 20 20 20 20 21 21 21 20 21 21 22 22 22 22
27 30 30 30 31 30 32 30 28 28 30 30 28 25 23 22 21 22 21 21 22 22 22 23 23 22 22 24 25 25 26 25 24 24 23 23 24 23 22 21 20 20 20 20 20 20 20 20 20 20 20 19 20 20 20 20 20 20 19 19 20 20 20 19 20 20 19 20 20 20 20 20 20 20 20 20 21 21 22 21 21 21 22 22 22 22
23 25 29 31 30 30 33 32 30 30 30 29 29 27 24 23 22 22 22 22 22 22 22 22 23 22 22 24 25 25 24 24 23 22 22 22 22 22 22 21 21 21 20 20 20 20 20 20 20 20 20 20 20 20 20 20 20 19 19 19 20 21 20 19 19 20 19 20 20 20 20 20 20 20 20 20 21 21 22 22 21 22 22 23 23 23
22 24 30 31 29 31 32 31 31 32 29 27 28 28 25 25 25 22 21 22 21 21 22 22 22 22 23 24 25 24 24 24 23 22 22 22 22 22 22 22 22 21 21 20 20 21 21 21 21 20 20 20 20 20 20 20 20 20 20 20 19 20 20 19 19 20 19 19 19 19 20 20 20 20 20 20 21 21 22 22 22 22 22 23 23 23
22 24 31 31 29 32 31 31 32 30 28 27 26 26 25 27 27 23 21 22 21 21 22 21 22 23 24 24 24 25 25 25 24 23 23 23 22 23 23 22 22 22 21 21 21 21 21 21 21 21 21 20 20 20 20 20 20 20 20 20 19 20 19 19 20 20 19 19 19 19 20 20 20 20 20 21 21 21 22 22 22 22 23 23 23 23
25 25 30 31 31 31 29 30 32 30 29 28 26 26 27 27 27 25 22 21 21 21 22 21 21 22 22 23 24 25 25 25 25 24 23 22 22 23 23 23 22 22 21 21 21 21 21 21 21 21 21 21 20 20 20 20 20 20 20 19 19 19 19 19 19 20 19 19 19 19 20 20 20 20 21 21 21 22 22 22 22 22 23 23 23 24
27 25 28 31 31 31 30 30 30 29 30 29 27 29 27 24 24 24 22 22 21 21 21 21 21 21 21 23 25 25 25 26 26 24 24 24 23 23 23 23 23 22 21 21 21 21 21 21 21 22 21 21 21 21 21 20 20 20 19 20 20 20 20 20 20 20 20 19 20 19 20 20 20 20 21 21 21 22 22 22 22 22 23 23 24 24
28 25 25 29 30 30 30 29 27 27 29 29 29 30 28 25 24 23 23 22 22 21 21 21 21 22 23 24 26 27 27 26 26 25 25 25 24 24 23 23 23 22 22 22 22 22 22 21 21 22 22 21 21 21 21 20 20 20 20 20 20 20 20 20 20 20 20 20 20 20 20 20 20 20 21 21 21 22 22 22 22 22 23 23 23 24
29 25 23 28 30 28 28 29 28 29 29 28 27 27 26 26 24 24 23 22 22 22 21 21 21 22 24 25 27 28 27 27 26 26 26 26 25 24 24 23 23 23 22 22 22 22 22 22 22 22 22 22 22 21 21 21 20 20 20 20 20 20 20 20 20 20 20 20 20 20 20 20 20 20 21 21 22 22 22 22 23 23 23 23 23 24
29 26 24 25 26 25 28 30 29 30 30 30 29 27 27 26 24 23 22 21 22 22 21 22 21 23 25 24 25 27 27 27 26 26 26 26 25 25 24 24 23 23 23 22 22 22 22 22 22 22 22 22 22 21 21 21 20 20 20 20 20 20 20 20 20 20 20 20 20 20 20 20 20 20 21 21 22 22 22 22 23 23 23 23 23 24
29 28 25 23 25 27 29 29 26 27 29 30 30 28 28 27 25 23 22 22 22 21 21 22 21 23 25 24 23 24 24 25 25 25 26 26 25 25 25 24 23 23 23 22 22 22 22 21 22 22 22 22 22 21 21 21 20 20 20 20 20 20 20 20 20 20 20 20 20 20 20 20 20 21 21 21 22 22 22 22 23 23 23 24 24 24
28 28 25 23 26 28 30 29 27 28 29 29 29 28 28 28 27 25 24 23 22 21 21 22 21 24 26 24 23 23 23 24 23 24 26 26 25 25 25 24 24 23 23 23 22 22 22 21 22 22 21 21 21 20 20 20 20 20 20 20 20 20 20 20 20 20 20 20 20 20 20 20 21 21 21 22 22 22 22 23 23 23 23 24 24 24
28 26 24 22 23 25 26 27 27 27 29 29 28 27 27 28 28 26 25 24 23 21 22 22 21 24 26 25 23 23 23 24 24 23 25 25 25 24 24 24 23 23 23 23 23 23 22 22 21 19 19 19 20 20 20 20 20 20 20 20 21 21 21 21 20 20 20 20 20 20 20 21 21 21 21 22 22 22 22 23 23 23 23 23 24 24
28 27 26 23 22 22 22 23 24 26 27 28 28 28 27 28 28 26 24 23 22 21 22 22 22 24 26 25 24 24 23 24 25 23 23 24 24 24 24 24 24 23 23 23 23 23 22 21 20 18 18 19 20 21 21 21 21 21 20 20 21 21 21 21 21 21 21 21 21 21 21 21 21 21 22 22 22 22 23 23 23 23 23 23 24 24
29 27 27 26 24 23 24 25 26 27 27 26 27 28 27 27 28 27 24 22 23 22 21 23 23 24 26 26 26 25 24 25 26 24 24 24 23 23 24 24 24 23 23 23 23 23 22 21 21 20 19 19 20 21 21 21 21 21 21 21 21 21 21 21 21 21 21 21 21 21 21 21 21 22 22 22 22 23 23 23 23 23 23 24 24 24
29 26 26 27 27 26 27 28 27 27 27 27 27 27 27 27 27 27 24 23 24 22 21 24 25 23 26 28 27 25 25 26 27 25 24 24 24 24 24 23 23 24 24 23 23 23 22 21 21 20 19 19 20 21 21 21 21 21 20 21 21 22 22 22 22 21 21 21 21 21 21 21 22 22 22 22 23 23 23 23 24 24 24 24 24 24
31 27 25 26 27 27 26 26 27 28 28 28 28 28 27 27 27 27 26 25 25 24 23 25 25 25 28 30 27 25 26 27 27 25 24 23 24 24 24 24 24 24 24 24 23 23 22 22 22 21 19 19 20 20 20 21 21 20 20 21 21 21 22 22 22 22 22 21 22 22 22 22 22 22 22 22 22 23 23 23 24 24 24 24 24 24
29 27 26 26 27 26 26 26 27 29 28 27 29 29 28 28 28 28 27 26 25 26 25 26 26 27 29 30 28 26 25 25 25 24 23 24 24 24 24 24 25 24 24 24 24 24 22 22 22 21 19 19 19 19 20 20 21 21 21 21 21 21 21 22 22 22 22 22 22 22 22 22 22 22 22 22 22 23 23 23 23 23 23 24 24 24
27 26 26 27 26 25 26 27 27 28 28 27 28 28 28 27 26 26 26 25 25 25 25 24 25 27 28 27 26 25 23 23 24 24 24 25 24 24 24 24 24 25 24 24 24 24 22 22 22 21 19 19 19 20 20 20 21 21 21 21 22 21 21 21 22 22 22 22 22 22 22 22 22 22 22 22 23 23 23 23 23 23 23 23 24 24
29 26 26 27 24 23 26 27 25 27 27 26 25 27 27 26 26 27 27 26 26 26 25 23 24 27 29 26 24 24 24 24 24 24 25 25 24 24 24 24 24 24 25 24 24 24 23 22 23 22 20 19 20 21 21 21 21 21 21 22 22 22 21 21 22 22 22 22 22 22 22 22 22 22 22 22 22 22 23 23 23 23 23 23 24 24
28 27 26 25 23 22 25 25 25 25 25 23 25 28 29 28 27 27 27 27 27 26 26 25 26 29 28 25 25 25 24 24 25 25 25 25 24 23 24 25 25 24 25 25 24 24 24 23 22 21 21 21 22 23 23 23 22 22 22 22 22 22 21 21 22 22 22 22 22 22 22 22 22 22 22 22 22 22 22 22 22 23 23 23 23 23
27 28 26 25 23 23 23 24 24 23 22 23 26 28 29 30 29 28 28 28 27 26 27 27 28 28 26 25 27 27 25 25 25 24 24 25 24 24 24 24 24 24 24 23 23 23 24 22 20 21 22 23 23 24 24 23 23 23 23 22 22 22 22 21 21 21 21 22 21 21 22 22 22 22 22 23 23 23 23 22 22 23 23 23 23 23
28 27 26 24 23 22 23 24 23 21 23 26 26 25 26 28 30 30 29 28 26 26 27 27 27 28 27 25 26 26 25 25 24 24 24 24 24 25 25 24 24 23 23 23 23 23 22 20 21 22 23 23 23 23 24 23 24 23 23 23 22 22 22 21 21 21 21 21 21 21 22 22 22 22 23 23 23 23 23 23 23 23 23 23 23 23
29 28 25 24 23 23 22 22 22 22 25 28 26 25 25 26 28 28 27 27 27 25 26 28 29 28 26 24 24 24 24 24 24 24 24 23 23 24 25 26 25 25 25 24 23 22 21 21 22 24 24 23 23 23 23 23 23 23 23 23 23 22 22 21 21 21 21 20 21 21 21 21 22 22 22 22 22 22 22 23 23 23 23 23 22 23
28 28 27 24 23 23 22 21 22 23 24 26 27 27 27 28 29 28 27 28 28 25 25 28 29 27 24 24 24 24 24 25 26 26 24 23 23 23 23 24 24 24 24 22 21 22 22 23 24 24 24 23 22 22 23 23 23 23 23 23 23 22 22 21 21 21 20 20 20 20 20 21 21 21 21 21 21 21 22 22 22 22 23 22 22 22
27 27 27 24 22 22 22 21 22 22 22 25 28 29 29 28 29 30 28 28 28 26 24 26 29 27 25 24 24 24 25 26 27 27 26 24 23 23 23 22 21 21 21 20 20 22 23 23 24 24 23 23 23 22 22 22 22 22 22 22 22 22 22 21 21 21 21 21 20 20 20 20 21 21 21 21 21 21 21 22 22 22 22 22 22 23
26 26 27 25 23 22 22 21 22 22 23 27 30 31 28 26 28 30 27 25 28 28 25 25 27 26 25 24 24 25 27 27 27 28 27 24 23 23 23 23 21 20 20 21 22 23 23 23 23 23 23 23 22 22 21 21 21 21 21 21 21 21 21 22 22 21 21 21 21 21 20 20 20 20 21 21 21 21 21 21 22 22 22 22 22 22
26 25 25 24 22 22 22 22 22 22 24 28 31 30 26 26 29 28 23 24 30 29 25 25 26 25 24 24 24 26 27 28 28 28 26 24 23 22 22 23 22 20 20 21 23 23 23 23 23 22 22 22 21 21 20 20 20 20 20 20 20 20 21 21 21 21 21 21 20 20 20 20 20 20 20 20 20 20 21 21 21 21 21 21 21 22
25 24 23 22 22 22 22 22 22 23 26 29 29 27 26 27 27 25 23 27 32 28 23 24 26 24 23 24 24 26 27 27 26 25 23 23 24 22 21 21 21 21 21 22 22 23 22 22 22 22 22 21 20 20 20 20 19 19 19 19 19 19 20 20 20 20 20 20 20 20 20 20 20 20 20 20 20 20 20 20 20 20 20 20 20 21
23 23 22 22 22 22 22 22 21 23 27 29 26 24 26 26 25 25 26 27 29 27 23 23 24 23 22 24 25 26 26 25 24 23 23 23 24 23 21 20 20 20 21 21 22 22 22 21 21 21 21 20 20 20 20 19 18 18 18 18 18 19 19 19 19 20 20 20 20 20 20 20 20 20 20 20 20 20 20 20 20 20 20 20 20 20
23 23 22 22 22 22 21 21 21 23 26 27 26 26 27 27 28 29 29 25 24 25 24 23 24 22 22 23 24 24 25 25 24 23 23 23 23 22 21 20 21 20 20 20 21 21 21 21 20 20 20 19 19 19 19 19 18 18 18 18 18 19 19 19 19 19 19 19 19 19 20 19 19 19 19 19 19 19 19 19 19 20 20 20 20 20
24 23 22 22 23 22 21 22 24 25 25 25 26 27 28 29 29 30 30 27 24 23 23 24 24 22 22 24 24 24 24 25 24 23 22 22 22 21 21 20 20 19 19 20 20 21 21 21 20 19 19 18 18 18 18 18 18 18 18 18 18 19 19 19 19 19 19 19 19 19 19 19 18 18 18 18 18 18 18 19 19 19 19 20 20 20
23 23 23 23 23 23 23 24 25 25 23 22 24 25 26 27 27 27 28 28 25 23 23 24 23 21 22 23 24 24 24 24 23 23 22 22 21 21 21 20 19 19 19 20 20 20 21 20 19 17 17 18 18 18 18 18 18 18 18 18 18 19 19 19 19 18 18 18 18 18 18 18 18 18 18 17 17 17 18 17 17 18 18 19 19 20
23 22 22 23 23 23 24 24 23 23 23 22 23 23 23 23 24 25 26 27 25 23 23 24 24 23 22 22 24 25 24 23 22 22 21 21 21 20 20 19 18 19 19 19 19 19 19 19 18 17 17 17 17 18 19 18 18 18 18 18 18 18 18 18 18 18 18 17 17 17 17 17 17 17 17 17 17 17 17 16 16 16 17 18 19 19
22 22 22 23 23 23 24 24 23 22 23 22 23 23 23 23 23 24 25 26 25 24 24 24 24 23 22 23 25 26 24 22 22 22 21 21 21 20 20 19 18 18 19 20 19 18 18 18 17 16 16 17 17 18 18 18 18 18 18 18 18 18 18 18 18 18 18 17 17 17 16 16 16 16 16 16 16 16 16 16 16 15 16 17 18 19
22 22 23 23 22 23 24 24 23 23 23 22 22 22 22 22 23 24 24 24 23 23 23 23 23 22 22 23 24 25 24 22 21 21 21 20 20 20 20 19 18 18 19 20 19 19 19 18 17 16 16 16 17 18 18 17 18 17 17 18 18 18 18 18 18 18 18 17 17 16 16 16 16 15 15 15 16 15 16 16 15 15 15 15 16 17
22 22 23 23 23 23 24 23 23 24 25 24 22 22 22 22 22 22 23 23 23 24 23 23 22 22 24 24 23 24 24 22 21 21 21 20 20 20 19 18 18 19 19 19 19 19 19 18 17 16 16 17 17 18 17 17 17 17 17 18 18 18 18 18 18 18 17 17 17 17 16 16 16 15 15 15 15 15 15 15 15 15 15 15 15 15
22 22 23 22 22 23 23 23 23 24 24 24 23 22 22 22 21 21 22 24 25 24 24 24 22 21 22 22 22 23 24 23 20 20 21 21 20 19 17 17 18 18 19 19 19 19 19 18 17 16 16 17 17 17 17 17 17 17 17 17 18 18 18 18 17 17 17 17 17 17 16 16 16 15 15 15 15 15 15 15 15 14 14 14 14 14
22 23 23 23 22 23 23 23 22 22 23 24 24 22 21 22 22 22 22 24 24 23 24 25 24 23 22 21 20 21 24 23 20 20 21 20 19 18 18 18 18 18 18 19 19 18 18 17 17 17 17 17 17 17 17 17 17 17 18 18 18 18 18 17 17 17 17 17 17 17 16 16 16 16 16 15 15 15 15 15 15 14 14 13 13 14
Height
764 775 781 780 778 775 774 775 776 779 780 780 785 786 789 790 786 782 779 776 776 783 786 785 785 783 779 775 773 771 771 773 774 773 772 772 772 771 772 771 769 768 765 761 762 764 765 766 767 769 772 775 779 782 784 785 788 791 794 796 797 798 799 801 802 805 806 808 810 812 814 816 817 819 821 822 823 825 826 827 828 830 831 832 833 835
768 780 780 773 772 770 770 773 775 779 780 781 785 787 788 789 783 777 778 776 774 781 784 783 786 783 777 775 773 771 772 773 772 773 773 772 773 772 772 771 769 766 763 761 762 763 764 764 766 768 770 773 776 779 784 785 786 789 793 795 796 796 798 799 801 803 805 806 808 810 812 814 816 818 820 821 822 824 826 827 828 829 830 832 833 834
779 781 772 764 768 770 770 773 775 778 780 782 786 788 788 785 781 777 777 779 777 781 783 783 786 780 773 774 773 770 771 772 771 771 772 772 772 773 772 772 770 767 765 763 763 763 763 763 765 767 769 771 775 780 784 784 784 787 790 793 794 795 796 798 800 802 803 805 807 809 811 814 816 818 819 821 822 824 825 826 827 829 830 831 833 834
785 774 762 760 765 769 771 773 775 778 780 782 785 789 787 782 783 781 779 783 780 780 782 782 783 777 773 773 772 772 771 771 773 771 772 773 772 773 772 772 771 769 767 765 764 763 762 763 764 766 768 771 775 780 782 784 785 785 787 791 792 793 795 797 799 801 803 805 807 809 811 814 816 818 819 821 822 823 825 826 827 828 829 831 832 834
777 764 757 761 764 766 770 772 775 778 780 780 780 785 781 776 781 782 781 784 783 783 781 781 785 779 773 776 775 774 773 772 773 773 773 773 772 772 771 771 771 769 767 765 764 763 762 763 763 765 768 771 774 776 779 784 786 784 785 788 790 792 794 796 798 800 802 804 807 809 812 814 817 818 819 820 821 822 824 825 826 827 829 830 832 833
769 758 756 762 765 767 770 772 773 775 779 778 772 771 770 768 775 782 783 787 794 796 782 781 795 789 774 776 777 773 774 774 773 773 773 773 773 773 773 771 770 767 764 763 762 761 761 761 763 765 767 769 772 775 778 783 786 784 785 788 790 792 793 795 798 800 802 803 806 808 810 813 815 817 818 818 819 820 822 824 825 827 828 830 831 832
762 756 756 760 764 767 772 772 770 770 779 781 765 756 762 767 773 781 782 785 797 799 783 779 796 796 780 774 776 774 773 773 773 772 771 772 774 774 772 770 769 766 763 762 762 761 761 761 762 765 767 769 773 775 776 780 785 785 784 786 789 791 793 795 797 799 801 802 804 807 809 811 813 815 816 817 819 819 821 823 825 827 828 829 830 832
757 755 756 759 763 769 773 770 765 766 776 776 759 754 762 766 770 778 781 783 788 790 787 783 788 798 792 780 780 778 775 774 773 771 769 769 772 772 770 769 767 766 764 763 763 762 761 761 762 766 769 771 773 776 776 779 784 785 785 787 790 791 793 795 797 799 800 802 803 806 808 810 812 814 815 817 818 819 821 823 824 826 827 828 830 831
754 755 756 757 763 768 766 759 758 762 767 765 758 758 762 765 770 777 782 786 786 787 794 793 789 800 799 783 782 782 778 778 774 770 768 766 768 770 769 768 767 765 764 763 764 763 762 763 764 767 769 771 773 776 779 782 785 786 787 789 792 794 794 794 797 798 800 801 803 805 807 809 811 813 815 816 818 819 820 822 824 825 826 828 829 830
752 752 750 754 760 760 753 749 752 757 761 760 761 761 764 770 773 777 783 784 787 790 794 795 791 801 800 783 783 786 781 780 773 768 769 767 768 769 769 769 767 766 764 763 763 764 764 766 766 767 770 772 774 778 781 783 785 786 787 788 791 795 796 795 797 798 799 801 803 805 806 808 810 812 815 816 817 818 819 821 823 824 825 827 828 829
749 746 747 750 751 749 745 746 751 754 756 756 759 762 768 774 772 776 781 781 794 799 794 796 791 795 802 789 783 784 778 775 772 768 768 766 767 768 768 769 767 766 765 762 762 763 765 768 769 769 771 774 776 778 781 782 782 784 787 788 789 792 795 796 796 797 799 800 802 804 805 807 809 811 813 815 816 817 818 820 821 823 824 826 827 828
752 751 750 744 739 741 743 748 752 752 754 755 759 764 772 780 780 784 786 787 804 807 796 799 794 794 804 793 781 779 773 772 772 768 766 765 766 768 768 769 768 767 766 764 763 763 765 768 770 771 771 773 776 778 779 780 780 782 786 789 789 789 793 795 796 797 798 800 801 803 805 807 808 810 812 813 814 815 817 818 820 821 823 824 826 827
754 749 749 742 737 738 744 753 755 752 753 756 761 768 779 795 800 802 803 804 810 804 795 798 796 797 800 785 776 776 769 769 769 767 767 766 766 768 768 768 768 767 767 767 766 765 767 768 769 771 771 772 774 775 778 778 779 782 784 787 789 789 791 794 796 796 797 799 801 803 805 807 808 809 811 812 813 814 816 817 819 820 822 823 824 825
760 751 746 745 742 737 741 754 760 757 756 757 762 768 781 800 813 817 818 817 811 800 795 795 794 798 794 780 776 774 767 767 767 767 768 767 767 768 767 768 768 768 767 768 768 767 767 767 767 768 770 771 771 773 777 778 779 782 784 785 787 786 787 792 795 795 796 798 800 802 804 806 807 808 810 812 812 813 815 816 818 819 820 822 823 824
777 769 751 746 746 739 738 744 749 751 754 758 759 763 771 781 795 807 809 807 807 802 799 796 795 799 793 780 774 769 767 768 766 768 768 767 767 767 767 768 767 768 767 767 768 768 767 766 766 768 769 770 771 773 775 778 779 781 782 784 785 784 785 790 793 794 795 797 799 801 803 805 806 808 809 811 812 813 814 815 817 818 819 820 822 824
782 774 748 740 741 738 739 739 738 744 756 763 760 761 768 766 771 792 801 798 801 804 803 800 796 793 786 776 770 769 769 768 767 768 768 768 768 767 768 768 767 768 767 767 768 768 768 767 767 768 769 771 772 773 774 775 777 778 779 782 784 784 785 789 792 793 793 795 798 800 802 804 806 807 809 810 811 812 813 815 816 817 818 820 821 823
778 769 745 740 741 736 738 737 735 743 755 763 762 763 766 760 762 784 802 803 803 805 806 803 796 787 781 776 773 771 769 768 768 768 768 769 768 767 768 767 767 768 767 767 767 767 767 768 768 768 769 770 771 771 772 773 774 775 776 779 782 783 785 788 790 791 792 794 797 799 801 803 805 806 808 809 810 811 813 814 815 816 818 819 821 823
767 765 747 743 745 739 736 737 736 739 745 756 763 759 759 762 763 773 793 807 811 809 806 806 805 797 791 785 777 774 774 770 768 768 769 770 769 768 767 766 767 767 767 767 766 766 766 767 768 767 767 768 769 769 770 770 772 773 775 778 780 781 783 786 788 790 791 793 796 798 800 802 804 805 807 808 810 811 812 814 815 816 817 818 820 822
759 767 756 745 748 743 736 741 747 744 741 747 752 751 756 770 774 775 788 801 809 816 813 808 810 804 793 785 776 775 775 771 769 770 769 769 768 767 766 765 765 766 766 767 766 765 765 765 766 766 766 766 767 768 768 769 771 772 774 776 777 779 781 784 786 788 790 792 795 797 799 801 803 804 806 807 809 811 811 813 814 815 816 817 819 821
754 768 765 749 746 746 742 747 756 755 747 745 748 751 756 766 773 776 784 788 796 815 819 809 806 796 783 778 772 769 770 768 768 769 767 765 765 765 765 764 764 764 765 765 765 764 762 762 763 763 764 765 765 766 766 768 770 770 772 774 775 778 781 783 785 786 789 791 794 796 798 800 802 803 805 806 808 810 810 812 813 814 816 817 819 820
753 766 768 755 748 753 754 752 754 754 752 753 756 760 761 766 772 775 782 786 788 802 814 813 806 787 772 771 767 762 764 763 765 765 764 763 762 762 762 762 761 762 762 762 762 762 760 760 761 761 762 762 763 764 765 766 767 768 770 772 774 777 780 782 783 785 788 790 793 795 796 799 801 802 804 806 807 809 810 811 813 814 816 817 818 820
752 761 765 760 756 758 755 749 747 748 749 751 754 758 760 764 771 779 791 794 788 793 803 809 804 782 767 768 765 761 762 761 761 762 762 761 760 760 760 759 759 759 758 759 759 759 759 758 759 760 760 762 762 763 764 765 767 768 770 772 774 777 778 780 782 784 787 789 792 794 795 797 800 801 803 805 806 808 809 810 812 813 815 816 817 819
744 753 760 764 762 757 752 748 750 751 747 747 749 754 758 760 764 775 788 789 790 798 800 802 800 781 766 767 765 763 763 761 761 761 760 760 758 758 757 756 757 757 756 757 757 757 757 756 758 758 759 760 761 762 764 765 766 767 769 772 774 776 777 779 782 783 786 789 791 793 795 796 798 800 802 804 805 807 808 809 811 812 814 815 816 818
742 753 762 766 763 755 748 745 747 748 747 750 753 755 757 758 758 765 773 774 785 800 798 800 803 781 762 764 764 762 762 760 762 760 758 760 758 757 757 756 756 756 755 755 755 755 756 756 758 761 763 765 765 767 769 771 772 772 772 773 773 775 777 778 781 783 785 788 790 792 794 795 797 799 800 802 804 805 807 808 810 811 812 814 815 816
742 756 763 773 779 774 766 762 757 753 751 753 756 758 758 757 758 764 770 771 782 794 791 795 799 779 761 764 762 761 763 760 761 760 757 758 758 757 757 756 756 757 756 756 755 755 756 758 763 766 766 766 766 767 770 772 774 775 775 774 773 773 776 778 780 782 784 786 789 791 792 794 795 797 798 800 802 804 805 807 809 810 811 812 814 815
740 755 756 768 787 793 788 780 768 759 757 757 757 759 759 758 758 762 769 773 781 792 791 788 787 773 763 765 762 762 764 761 760 760 758 758 759 759 758 756 756 756 756 756 756 756 758 762 765 763 760 761 762 763 764 765 766 767 769 771 772 773 775 777 779 781 782 785 787 789 791 792 793 795 796 798 800 802 804 805 807 808 810 811 812 813
743 753 750 754 764 769 766 760 756 754 756 758 757 757 760 761 758 759 769 773 776 789 792 780 775 771 765 765 764 762 763 760 758 759 759 759 760 759 758 757 756 756 756 757 756 757 760 762 761 757 757 761 763 761 760 761 763 764 765 768 770 772 773 775 777 779 781 783 785 787 789 790 791 793 794 796 798 800 802 803 805 806 808 809 810 812
742 750 752 751 749 751 751 749 752 753 752 754 756 757 759 760 759 758 764 768 771 784 787 773 770 772 763 759 761 760 760 759 756 756 758 758 758 758 758 758 757 757 756 757 757 758 760 761 758 755 757 760 760 759 759 761 763 764 765 766 769 770 772 774 776 777 779 781 783 785 786 788 789 791 792 794 796 798 799 801 803 804 806 808 809 810
737 746 753 754 749 753 758 755 752 750 751 753 753 755 757 758 758 755 758 765 766 768 770 765 767 768 757 752 756 756 755 753 752 754 756 757 758 758 758 758 758 758 757 757 758 758 760 760 757 756 758 759 759 759 760 761 763 764 765 767 768 770 771 773 774 776 778 779 781 783 784 786 788 789 791 792 794 796 798 799 801 802 804 805 806 807
736 744 753 754 749 753 758 757 752 749 752 754 751 752 756 756 756 754 757 765 763 760 763 765 766 761 751 748 749 748 750 751 751 754 755 755 757 757 757 758 757 757 757 757 757 758 759 759 756 757 759 759 759 759 759 761 762 763 764 766 768 769 771 772 773 774 776 777 779 781 783 785 786 787 789 790 791 793 795 797 799 800 802 803 804 805
735 746 753 750 750 756 755 754 754 752 752 753 752 754 756 757 760 760 760 765 765 764 768 769 769 761 749 746 748 747 750 753 754 755 754 754 755 756 757 758 757 757 757 756 756 757 758 758 756 756 758 758 758 758 759 760 761 762 763 764 766 767 769 771 772 773 774 776 777 779 782 783 784 785 786 787 789 790 792 794 796 798 799 800 801 802
736 748 752 748 756 761 754 753 759 756 753 756 757 756 756 756 758 756 756 758 758 761 767 771 769 758 746 746 750 749 751 753 755 755 754 754 755 755 756 757 756 756 755 755 756 756 757 757 756 755 756 757 757 757 757 758 760 761 762 762 764 765 767 769 770 771 772 774 776 778 779 780 780 782 783 784 786 787 789 791 793 794 796 797 798 799
741 745 748 753 761 762 758 761 761 758 763 767 757 748 748 751 753 753 753 753 752 755 761 762 756 747 744 748 749 750 753 754 753 752 751 752 754 754 754 754 754 754 753 753 755 755 755 755 754 754 754 755 756 756 757 757 758 759 760 761 763 764 765 766 767 769 770 772 774 775 775 775 776 778 780 782 784 785 787 788 790 791 792 793 795 796
745 744 749 755 757 760 764 763 762 771 778 767 748 740 741 742 744 747 747 746 747 749 749 748 746 743 746 747 744 745 749 749 747 746 747 748 750 752 753 752 752 752 752 752 753 753 753 753 752 752 752 754 755 755 756 757 757 758 759 760 762 763 764 765 765 767 768 770 772 772 772 772 774 776 778 779 781 783 784 785 787 788 789 791 792 793
743 746 754 757 756 763 767 765 776 786 772 749 742 743 740 737 737 740 742 743 746 747 744 744 743 740 741 744 742 742 744 744 744 745 745 746 746 748 750 750 751 751 752 752 752 751 752 752 751 751 751 753 754 755 756 757 757 758 759 760 761 762 763 764 765 766 767 768 769 770 769 770 772 774 775 777 778 779 780 782 783 785 786 788 789 790
740 745 753 757 761 767 769 773 781 777 754 741 745 745 741 741 742 743 746 745 743 744 744 740 738 738 741 744 744 742 743 744 744 744 744 744 745 745 747 748 748 749 749 749 749 749 749 750 750 751 751 752 754 754 755 757 757 758 759 759 761 761 762 764 765 765 767 767 768 769 770 770 771 772 773 774 775 776 777 778 779 781 783 784 785 786
737 742 746 755 763 767 770 773 770 762 754 749 745 738 735 736 736 739 746 743 737 740 742 737 734 738 741 743 743 743 742 745 747 746 743 742 743 743 745 745 745 746 746 746 747 748 748 749 750 751 752 753 754 755 756 757 757 758 759 759 760 761 762 763 764 765 765 766 768 770 770 770 770 770 771 772 773 774 774 775 776 778 780 781 782 782
736 740 742 751 763 767 769 772 771 772 769 753 737 729 725 726 725 728 739 743 735 734 739 735 734 738 740 742 744 742 742 748 752 748 741 741 742 742 743 744 744 745 745 746 747 748 748 750 750 751 753 753 754 755 756 757 758 758 759 760 760 761 761 762 763 764 764 765 767 768 768 768 768 769 769 770 771 771 772 773 774 775 776 778 778 779
738 742 741 747 761 766 766 770 774 774 762 743 729 723 724 728 725 726 745 751 734 727 734 734 733 737 738 740 741 741 746 754 755 745 738 740 741 740 742 744 743 745 746 746 747 748 749 750 751 752 753 754 755 756 757 758 758 759 759 760 760 761 761 761 762 763 763 764 765 766 767 767 767 767 767 768 768 769 770 771 771 772 774 775 775 776
741 744 747 752 758 759 760 765 767 761 747 733 724 723 727 727 722 739 767 760 727 720 731 730 730 735 737 739 741 741 745 750 747 740 736 737 739 739 741 742 743 744 745 746 747 748 749 750 751 752 753 754 755 756 757 758 758 759 760 760 760 761 761 761 762 762 763 763 764 765 765 765 766 766 766 766 767 767 768 769 769 770 771 771 772 772
748 749 755 758 757 757 759 761 760 752 736 725 723 723 724 726 734 755 765 741 715 720 729 726 728 734 735 737 739 737 738 738 737 736 736 736 738 739 739 741 742 743 744 746 747 748 749 751 752 753 754 755 756 756 757 757 758 759 759 760 760 760 761 761 761 762 762 763 763 764 764 764 765 765 765 766 766 766 766 767 767 768 768 769 769 768
754 754 758 760 760 763 762 759 760 751 729 718 723 724 722 732 747 748 734 719 714 721 725 725 728 731 732 734 734 732 733 733 734 735 736 736 737 739 740 741 742 743 745 746 747 749 750 751 752 753 754 755 755 756 756 757 758 758 759 760 760 760 760 761 761 761 762 763 763 763 764 764 764 764 764 765 765 765 765 764 765 765 765 766 765 763
748 752 757 757 758 763 765 764 765 755 729 715 722 727 724 729 731 720 714 718 720 718 721 725 726 727 730 732 732 733 733 733 734 735 736 737 738 738 740 741 742 743 745 746 748 749 750 751 752 753 754 755 756 756 756 757 757 758 759 759 759 760 760 761 761 762 762 762 763 763 763 763 763 763 763 763 763 763 762 762 762 763 763 763 762 760
747 750 755 754 752 758 764 761 751 740 726 718 719 722 718 713 707 705 708 716 718 719 721 722 723 726 728 728 731 734 733 734 735 735 736 738 739 739 740 741 742 744 745 746 748 749 750 752 753 754 755 755 756 756 756 756 757 758 758 759 759 760 760 761 761 761 762 762 762 763 762 762 761 761 761 761 761 760 760 759 759 760 760 760 759 758
746 745 748 748 745 746 748 743 732 726 725 724 719 716 713 707 703 704 705 708 714 718 718 718 722 726 726 727 730 732 732 734 735 735 736 737 738 739 740 741 742 744 745 747 749 750 751 752 753 754 755 756 756 756 756 756 757 757 758 758 759 759 760 760 760 760 761 762 762 762 761 761 760 760 759 759 759 758 758 757 757 757 757 757 756 755
743 741 743 744 742 738 735 732 729 727 725 722 717 714 713 711 707 704 703 706 710 712 712 715 719 721 724 727 729 730 733 734 734 735 736 737 738 740 740 741 743 745 746 748 749 750 752 753 754 755 756 756 756 756 756 756 756 757 757 757 758 758 759 759 760 760 760 760 761 761 760 760 759 759 758 758 758 757 757 756 756 755 755 754 753 752
742 741 742 743 743 741 737 732 730 729 726 723 719 714 712 712 708 704 705 706 707 709 711 712 714 719 723 725 726 729 732 733 734 736 737 737 739 739 740 742 744 744 746 748 749 750 752 753 754 756 756 756 756 756 756 756 756 756 756 756 757 757 758 758 759 759 759 759 759 759 759 759 759 758 757 757 757 756 755 754 754 753 752 752 751 750
744 741 742 744 744 741 736 731 728 726 723 721 720 718 717 716 712 707 707 707 707 710 712 712 715 719 722 723 725 728 731 733 735 736 737 738 739 739 740 742 743 744 746 747 748 750 751 752 754 755 755 756 756 756 756 756 756 756 756 756 756 756 757 757 758 758 758 758 758 758 758 757 757 757 756 756 755 755 754 753 752 750 749 748 749 748
743 742 742 744 743 739 734 730 728 725 721 719 719 719 718 717 716 713 711 710 710 712 713 715 717 718 720 723 725 727 730 733 733 734 736 737 737 738 740 742 743 744 746 747 748 750 750 752 753 754 755 755 755 755 756 755 756 756 755 755 755 755 756 756 756 757 757 757 757 757 756 756 756 755 755 755 754 754 753 751 750 748 746 745 745 745
743 744 743 745 748 746 739 734 732 732 731 725 722 721 719 716 717 718 716 713 713 714 715 716 719 720 721 722 724 726 729 731 732 734 735 735 736 738 740 741 743 744 745 747 748 749 750 752 752 753 754 754 754 754 755 754 755 755 755 755 755 754 755 755 755 756 756 756 755 755 755 755 754 754 754 754 753 752 751 749 747 746 743 741 741 740
741 742 741 744 748 745 737 733 733 735 733 727 722 722 721 717 717 720 720 717 716 715 715 716 719 722 723 724 724 726 727 729 731 733 734 735 737 738 739 741 743 744 746 747 748 749 750 751 751 752 753 753 753 753 753 753 754 754 754 754 754 753 754 754 754 754 755 754 754 754 753 753 753 752 752 752 751 751 749 746 744 743 741 739 736 734
Wind_Speed
3 1 2 5 6 6 6 7 5 3 4 3 2 0 2 4 6 4 3 5 6 4 4 7 6 7 8 7 5 4 1 5 4 3 3 1 1 2 3 4 5 5 6 7 10 12 18 23 27 30 31 32 32 30 27 23 23 24 25 26 26 26 24 21 20 19 18 19 18 18 19 17 16 17 18 19 19 17 15 14 13 13 14 15 15 14
3 1 6 8 9 8 7 6 4 2 2 0 1 3 4 4 6 4 3 4 5 4 3 3 5 9 9 7 5 3 3 4 5 5 3 1 1 2 2 3 5 5 4 5 6 7 16 22 26 28 31 32 31 27 25 24 26 26 26 28 28 27 26 24 24 21 20 22 22 20 19 19 17 18 19 20 20 19 17 15 13 14 15 15 16 15
3 3 11 10 7 6 5 5 5 4 3 2 1 1 4 4 4 4 2 2 3 4 3 2 5 8 9 5 5 4 4 3 2 4 3 3 2 1 2 3 4 4 5 5 3 5 13 21 24 26 29 30 28 24 25 28 29 28 27 28 28 29 27 26 25 23 22 23 23 21 19 19 18 17 19 20 20 19 17 15 14 14 15 15 15 15
1 6 10 6 6 7 4 3 6 3 2 3 4 2 5 4 1 4 4 3 1 1 1 3 3 5 6 3 2 1 2 3 3 3 3 2 3 1 3 2 3 4 6 5 4 4 9 17 22 24 25 25 25 25 27 29 28 28 28 28 28 29 28 27 25 24 23 22 21 19 17 17 17 15 17 18 18 18 17 16 15 15 16 16 16 16
6 9 5 4 6 7 4 3 5 3 3 4 6 6 6 7 4 4 2 2 2 3 0 4 3 5 4 2 2 1 2 3 2 3 2 1 1 1 2 3 3 3 5 6 6 6 7 12 18 21 22 23 27 28 28 28 27 28 29 29 28 28 28 27 26 24 22 20 20 19 16 15 16 14 15 17 16 17 17 18 17 16 16 17 16 16
9 8 4 5 4 7 6 4 5 7 3 4 5 11 13 10 5 5 4 5 4 4 3 3 2 5 4 3 4 2 2 0 1 1 1 1 2 2 3 3 3 3 4 6 7 7 8 10 14 19 22 25 26 26 27 27 26 26 27 27 27 27 27 27 26 24 23 21 21 20 18 17 17 15 16 19 19 18 19 19 19 17 17 18 17 16
5 2 4 4 4 5 5 4 6 8 5 2 5 10 11 7 6 8 8 5 3 3 3 3 4 4 5 4 5 3 2 3 3 2 3 3 2 2 2 2 4 4 4 4 6 5 6 10 13 16 20 23 21 21 26 26 23 23 25 26 26 26 26 27 26 25 23 22 21 21 20 19 18 17 17 20 20 20 20 20 19 18 18 18 17 17
3 2 4 3 4 5 3 4 6 8 8 2 5 5 8 8 9 11 9 4 3 3 3 4 4 1 4 4 5 3 2 5 5 5 5 4 2 2 2 3 4 5 5 4 5 5 6 9 10 14 17 17 15 17 21 21 18 20 23 22 23 25 25 25 26 26 24 23 22 21 21 19 19 19 17 17 18 18 19 20 20 19 18 18 18 17
2 2 3 2 4 3 4 5 7 10 5 4 3 7 8 7 7 8 6 2 0 2 2 4 1 1 4 5 5 3 1 5 6 6 6 5 3 2 2 3 4 5 5 3 4 5 5 6 9 15 16 13 13 14 14 14 14 15 20 20 18 20 23 24 25 26 25 24 23 22 21 19 19 19 18 17 17 17 18 20 20 20 19 18 18 17
3 3 3 2 1 3 7 5 8 11 4 2 5 9 7 5 6 6 5 2 3 3 2 5 2 2 4 5 4 3 0 4 6 6 6 5 3 2 3 3 2 4 4 3 4 5 4 5 9 13 13 10 12 15 12 13 15 15 19 20 18 18 19 23 25 25 25 24 22 22 21 20 19 19 18 17 17 17 17 19 20 20 19 19 18 17
6 2 2 3 3 6 6 3 5 9 6 3 4 8 8 6 5 4 3 4 4 3 4 5 5 4 1 5 3 1 2 4 4 4 5 4 3 2 2 2 3 3 3 3 2 5 6 6 8 10 10 8 11 15 14 15 18 17 18 20 21 20 19 21 24 25 24 23 23 23 23 22 20 20 19 18 19 18 18 19 20 20 19 19 19 18
7 3 2 4 4 4 3 1 2 3 3 3 3 5 5 3 4 4 4 3 2 3 5 4 4 6 2 4 2 3 5 4 4 3 4 5 3 2 2 1 2 3 1 2 2 6 6 6 8 9 11 10 11 13 14 16 17 17 18 19 20 20 19 20 23 25 24 24 24 24 23 23 22 22 21 21 21 21 20 20 20 20 19 20 20 19
5 4 3 4 3 5 5 2 1 4 4 5 5 5 4 3 3 2 3 1 2 5 3 2 1 3 4 5 3 5 5 4 6 4 3 4 2 1 1 0 1 1 1 2 3 6 4 3 6 8 10 11 12 13 14 16 18 18 19 20 20 19 18 19 22 25 24 24 24 24 24 24 23 22 22 23 23 23 21 20 20 20 20 21 22 22
4 5 4 2 2 2 6 5 1 2 1 4 4 4 4 3 2 1 3 2 3 4 2 2 1 0 3 3 3 5 5 4 4 3 1 2 3 3 2 1 1 2 1 2 2 5 5 3 4 7 9 9 10 11 14 17 20 20 19 21 21 19 18 18 22 24 24 24 25 25 25 24 24 23 23 24 23 23 23 21 20 21 21 23 24 24
0 4 3 2 1 1 4 5 5 5 3 2 4 5 4 4 4 2 3 3 3 3 2 3 0 2 2 2 4 5 4 3 1 2 2 2 3 3 2 1 1 2 1 3 3 3 4 4 5 7 9 11 12 13 16 18 20 20 19 20 20 19 20 21 22 24 24 24 24 25 25 25 24 24 24 24 23 23 23 22 21 21 22 24 25 24
1 5 7 4 2 2 2 3 5 6 3 1 2 4 1 3 5 3 3 4 3 1 1 2 1 3 3 3 4 3 2 3 3 3 3 3 2 3 3 2 2 2 1 3 3 3 3 5 7 8 10 13 15 16 18 19 20 20 20 21 20 20 22 23 23 24 24 24 24 25 25 24 24 24 24 24 23 23 23 22 21 21 21 23 23 22
1 5 6 3 2 0 2 3 3 3 2 1 1 2 3 3 7 5 1 1 2 2 1 1 2 4 2 0 3 3 3 3 3 3 2 2 2 3 3 3 3 3 2 3 4 4 4 5 8 11 13 15 16 18 20 21 22 22 23 23 21 20 22 25 25 24 24 24 24 24 25 24 24 25 25 25 24 23 22 21 21 20 20 21 21 21
3 3 6 2 1 3 0 3 4 3 4 3 1 4 3 2 4 4 2 3 4 1 2 2 2 4 2 0 3 2 2 2 3 1 1 2 3 3 4 4 4 4 3 3 4 4 5 6 9 12 14 16 18 20 22 23 23 23 23 23 22 22 24 27 26 24 24 24 24 24 24 24 25 25 25 25 24 22 22 20 20 20 20 20 21 21
4 2 7 2 2 4 4 5 4 5 2 4 4 3 2 2 1 1 1 1 1 1 3 3 3 3 3 3 3 2 5 5 4 2 2 4 5 5 5 5 5 4 4 4 5 5 5 7 10 13 15 17 19 21 22 23 23 23 23 22 21 22 25 26 26 24 24 24 24 24 25 25 25 25 25 25 24 22 22 21 20 20 21 21 21 21
3 2 5 3 1 2 5 4 1 4 3 4 3 2 2 2 3 1 1 2 2 2 2 3 3 3 5 4 4 6 7 7 5 4 4 5 6 6 5 5 5 5 5 5 5 6 6 8 12 15 15 17 19 21 21 22 22 22 22 21 21 22 23 23 24 24 23 24 24 24 24 25 25 25 25 24 23 22 22 21 20 21 22 22 21 21
3 3 3 4 2 1 0 1 5 5 2 2 2 1 1 2 2 2 1 1 2 3 2 0 2 4 5 4 5 6 6 7 7 6 5 5 5 6 6 5 5 5 6 6 6 7 7 8 12 16 17 17 18 20 20 21 22 22 22 22 22 23 22 23 24 24 24 24 24 23 24 25 25 25 25 23 23 22 21 20 20 21 22 22 22 22
2 3 3 2 1 2 4 4 5 6 5 5 3 3 3 2 3 3 1 2 1 3 3 3 1 6 5 3 4 5 4 6 6 6 5 5 5 5 5 5 6 6 6 6 6 6 6 8 11 13 15 16 16 18 19 20 20 21 22 23 22 22 23 23 24 25 24 24 23 23 23 24 25 25 24 23 22 22 21 19 19 19 21 21 22 23
3 4 4 1 3 5 7 5 2 4 3 4 3 3 4 3 4 5 2 3 1 3 1 3 1 5 5 3 4 5 4 5 5 6 5 5 5 5 4 4 4 5 5 4 5 6 6 7 10 13 14 16 17 17 19 20 21 22 23 22 21 22 23 24 24 24 24 23 23 23 22 23 24 25 25 23 22 22 21 20 18 17 19 21 22 23
2 4 4 1 4 4 6 5 2 2 3 3 1 1 3 2 3 5 5 3 3 2 1 3 1 5 5 3 2 3 4 4 4 5 5 4 4 4 4 3 3 4 4 3 4 4 5 6 6 4 2 2 2 3 4 7 10 14 18 20 21 22 22 23 23 22 23 23 22 23 23 23 23 24 24 24 23 22 22 22 20 17 18 20 22 23
2 2 4 3 3 5 6 6 5 4 2 1 1 2 1 4 6 4 2 3 3 3 4 4 2 6 5 4 3 1 2 3 4 4 4 5 4 4 4 3 3 2 3 3 2 2 2 1 4 7 5 3 1 2 3 3 5 7 13 19 21 22 22 22 22 22 22 23 22 23 24 23 23 23 23 24 23 23 22 22 22 19 18 19 21 22
3 3 4 6 4 3 2 2 3 3 1 1 0 2 1 4 7 5 2 4 1 3 4 4 4 5 6 4 4 2 2 4 4 4 3 3 3 3 3 3 3 2 2 3 3 2 2 5 7 2 7 10 9 9 12 14 15 15 19 21 21 21 22 22 22 22 22 23 23 23 23 23 23 23 23 23 24 23 23 23 22 21 20 20 21 22
3 2 3 7 8 8 8 7 6 3 3 2 2 1 1 2 6 6 4 2 3 4 2 4 5 2 6 5 4 5 4 5 5 4 4 3 3 3 3 3 3 3 2 1 2 3 3 7 6 9 12 10 8 9 13 15 17 19 21 23 22 22 21 22 22 22 23 23 23 23 23 23 23 22 22 22 23 23 23 23 23 22 21 21 22 24
5 2 2 7 8 8 7 7 4 4 5 5 5 4 3 2 6 6 4 4 5 6 2 7 6 4 6 8 7 7 5 5 6 6 5 5 4 3 2 2 2 3 3 2 1 1 3 6 7 8 8 10 10 12 13 14 15 17 19 20 21 22 22 22 22 23 23 23 23 23 23 23 23 22 21 20 20 21 22 23 23 23 22 21 22 24
6 2 3 5 3 3 4 5 3 5 4 4 6 6 5 5 6 6 5 6 7 7 5 7 8 7 7 7 9 9 8 8 7 6 4 4 3 3 3 2 3 4 4 3 2 2 3 5 6 6 6 10 12 13 12 13 13 13 14 14 16 19 21 21 22 23 23 23 22 23 23 22 22 21 20 20 19 20 21 22 22 22 22 22 23 24
5 2 3 3 2 2 1 4 2 5 4 2 3 5 6 7 7 4 4 6 6 4 4 6 8 8 8 7 9 9 7 6 3 3 4 5 5 5 5 5 5 4 4 4 4 2 3 4 6 5 6 9 12 13 13 13 12 12 13 12 13 15 18 19 20 22 23 23 23 23 22 22 22 21 21 21 21 21 21 22 22 22 22 22 23 24
2 2 1 4 4 2 4 2 3 4 5 5 3 4 3 5 3 1 2 4 3 1 1 5 4 7 6 5 6 4 4 4 3 4 4 5 5 5 5 5 5 5 5 5 4 3 2 3 5 5 5 8 11 12 13 14 14 13 14 13 13 14 15 17 18 20 21 22 23 22 21 20 20 20 21 21 21 22 22 22 23 23 24 24 24 25
3 2 1 5 4 3 4 2 3 4 4 4 3 5 4 5 4 3 3 5 6 4 4 6 2 6 6 3 2 3 5 5 4 5 5 4 4 6 6 6 6 6 6 5 5 4 3 4 5 5 6 9 11 12 12 13 13 14 14 15 15 14 14 15 17 19 20 21 21 20 19 20 21 21 21 21 21 21 21 22 22 23 24 25 26 26
2 4 2 3 4 4 3 3 3 3 3 1 5 7 8 5 3 2 2 4 6 7 6 4 5 6 4 3 4 4 5 5 6 7 5 5 5 5 7 7 7 7 7 6 5 5 5 5 6 8 9 9 10 9 8 8 9 10 12 13 13 13 13 14 15 18 20 20 20 19 20 24 25 24 23 22 22 21 21 21 21 22 24 25 26 26
3 4 3 3 3 4 3 4 4 1 4 6 6 6 8 6 7 6 4 6 8 5 3 4 5 3 3 6 7 8 8 6 6 7 5 5 6 6 7 7 7 6 6 5 5 5 5 5 7 10 11 11 10 8 6 6 6 6 7 8 9 10 12 13 13 15 17 19 20 20 23 26 26 25 25 24 23 23 23 23 23 24 24 23 24 25
4 4 2 2 3 2 1 5 3 4 7 7 6 3 3 5 8 8 2 4 7 6 3 3 6 6 6 6 4 6 7 3 1 4 5 5 6 7 6 7 6 5 5 5 5 5 5 6 8 10 10 9 8 7 7 7 7 5 5 5 6 7 9 10 11 12 14 16 18 20 22 24 24 24 26 26 26 26 26 26 26 26 26 25 24 24
5 4 2 1 2 2 2 4 4 6 7 5 5 3 1 3 6 5 1 5 7 8 6 5 7 6 5 3 1 3 5 2 2 2 5 5 5 6 6 7 6 6 6 6 6 6 7 9 9 8 7 4 3 4 6 7 7 7 6 5 5 6 7 9 10 11 12 14 15 16 18 19 20 21 22 23 25 26 26 26 26 27 27 26 25 24
5 4 2 1 1 2 3 3 3 4 4 2 3 3 3 5 6 7 3 6 7 7 7 7 7 4 4 3 2 4 5 4 3 3 4 5 6 6 5 5 5 6 5 5 6 8 9 9 8 7 5 4 4 4 3 4 6 7 7 7 7 6 6 7 9 10 11 12 12 13 15 17 18 19 19 21 22 24 25 25 25 25 25 26 26 26
4 2 3 4 2 2 4 1 2 2 3 5 7 8 5 5 7 8 4 4 7 6 8 8 7 6 5 5 5 5 5 4 1 5 5 4 5 5 3 2 3 4 5 6 7 7 8 8 7 6 6 5 5 4 3 3 3 4 5 6 7 7 7 8 9 10 10 10 10 12 15 17 18 18 19 20 21 23 25 25 26 26 25 25 27 28
5 3 3 4 1 2 4 2 3 4 5 7 10 9 6 2 6 6 2 5 7 7 9 8 7 7 7 6 7 6 5 2 4 6 5 4 4 5 4 3 3 4 6 8 10 10 10 9 7 6 6 5 4 3 2 2 2 2 4 5 6 7 8 9 10 10 10 9 9 9 12 14 15 16 17 18 19 20 21 22 23 24 24 25 26 28
5 4 2 3 3 3 5 3 3 3 5 7 9 7 4 3 7 8 1 6 7 7 9 9 9 8 7 7 6 6 6 5 6 5 4 4 4 4 5 5 5 6 8 9 10 11 11 9 8 7 5 3 3 1 1 0 0 1 3 5 6 7 8 9 10 10 9 9 8 8 9 10 11 13 14 16 17 18 18 19 20 21 22 23 24 25
3 2 2 3 4 4 5 4 3 3 6 7 7 6 6 5 5 5 5 7 6 6 8 8 9 8 8 8 7 5 6 6 4 3 3 4 6 4 4 5 6 8 11 11 11 11 11 9 7 5 3 2 1 0 1 1 1 0 1 3 5 6 6 7 8 8 7 7 7 7 7 8 9 10 11 13 14 15 17 18 19 20 20 20 21 23
0 1 1 1 3 3 3 3 2 4 5 5 3 4 6 6 3 5 6 4 5 8 7 7 8 8 9 9 7 5 4 3 3 3 3 5 6 5 5 6 7 8 9 11 11 11 10 8 5 3 3 2 1 1 2 2 2 2 1 2 3 4 3 3 4 4 4 4 5 6 7 8 9 11 12 13 14 14 16 18 18 19 19 20 22 24
3 2 1 2 3 1 0 2 3 4 5 4 6 3 3 5 6 6 3 1 3 7 8 6 7 8 8 8 5 2 3 3 3 3 4 5 5 5 6 7 8 8 9 10 9 9 8 6 4 3 2 1 1 2 2 2 2 2 1 0 2 2 2 2 2 2 3 4 5 7 8 10 11 12 12 14 14 15 17 18 18 19 19 20 22 26
2 2 2 2 2 3 2 4 5 4 6 3 3 3 6 7 6 6 6 4 2 5 6 6 6 7 8 9 6 3 3 4 4 4 5 5 4 5 6 6 8 9 10 9 9 8 7 5 4 3 2 1 0 1 2 2 2 1 1 0 2 4 3 3 3 4 4 5 6 7 8 10 11 12 12 13 13 15 17 18 18 19 21 21 23 25
2 2 3 3 3 3 5 6 5 4 6 6 4 4 6 5 4 7 8 6 5 5 5 6 7 6 6 7 7 5 4 4 5 6 6 6 6 6 6 6 7 9 9 9 9 8 6 5 4 4 3 2 0 1 3 3 2 2 2 2 3 5 6 5 6 6 5 5 6 7 8 9 10 12 12 13 13 15 17 18 17 18 20 23 24 25
2 0 2 2 3 3 3 3 5 6 7 7 5 4 4 5 4 5 7 6 6 6 5 7 8 8 7 6 6 5 4 5 6 5 5 5 5 5 5 5 7 8 9 9 9 8 6 6 6 5 4 2 1 2 3 3 3 4 4 4 5 6 6 5 5 6 6 6 6 7 7 8 9 11 12 12 12 14 16 18 18 18 20 22 25 27
3 1 1 0 2 2 2 3 6 7 7 7 6 4 3 5 3 2 5 5 6 6 6 7 9 8 7 7 7 6 5 6 6 5 4 5 5 5 5 5 6 8 9 9 8 8 7 7 7 5 3 1 1 1 2 4 4 5 6 6 5 6 6 6 5 5 6 6 6 7 8 9 9 10 10 11 12 13 15 17 19 20 21 22 24 26
2 2 2 2 2 2 3 5 8 7 5 3 4 5 5 6 6 4 3 3 5 6 5 5 7 8 7 6 7 7 6 6 6 6 5 5 5 5 4 5 7 9 8 7 6 5 5 6 6 4 2 1 1 2 4 4 5 5 7 7 6 6 6 6 5 5 5 7 7 7 9 10 10 9 11 13 14 14 15 16 18 20 22 23 24 25
2 3 2 2 3 3 3 5 8 7 5 6 8 8 6 6 7 6 4 5 6 6 6 5 4 6 7 7 6 7 7 6 6 7 7 6 5 5 5 6 8 8 7 5 4 3 2 2 3 2 1 1 1 2 4 5 5 6 7 7 7 7 7 7 5 4 5 7 8 9 10 11 10 11 12 13 14 15 17 18 18 20 24 24 23 26
2 3 2 3 3 3 3 4 5 5 4 6 8 9 7 6 7 7 3 4 6 6 7 7 5 4 5 5 6 8 8 7 6 6 6 6 5 5 6 8 8 7 6 5 4 3 2 1 1 1 1 1 2 3 4 4 3 5 7 7 8 7 7 6 5 5 5 7 9 10 10 10 10 11 12 13 14 16 19 20 20 20 22 23 22 24
3 4 2 1 1 4 5 5 3 2 4 6 5 8 7 4 6 6 5 1 4 5 7 8 7 5 3 3 5 7 7 7 6 7 6 5 5 7 9 10 10 8 7 6 5 3 2 1 0 1 1 3 4 4 3 2 2 3 6 7 8 8 7 6 5 5 6 7 9 9 7 8 10 12 13 14 14 15 18 21 21 20 19 19 22 22
Wind_Direction
96 94 258 231 228 228 222 207 190 145 117 115 129 210 261 270 280 236 231 248 175 159 228 200 223 263 264 270 288 300 185 148 172 186 205 299 10 249 246 261 255 252 256 260 253 217 192 185 181 181 182 181 183 191 195 194 196 196 191 192 193 194 193 188 186 183 184 189 190 192 196 195 191 188 194 201 200 200 203 204 207 205 194 193 191 183
66 182 245 231 220 225 218 202 189 148 123 106 226 304 307 254 264 251 216 254 185 172 271 195 211 259 259 266 274 247 172 165 177 180 199 190 31 299 277 267 262 266 276 273 261 199 177 176 175 176 180 182 181 182 186 188 194 195 193 193 192 192 193 193 192 188 189 193 193 193 195 195 190 187 191 197 201 200 201 204 207 205 195 192 192 187
18 250 251 240 202 195 207 182 164 179 187 177 152 342 303 265 281 290 300 312 186 182 279 198 193 255 264 265 264 231 168 158 162 154 157 146 140 251 267 253 262 273 273 258 223 177 171 167 167 172 179 183 179 174 182 191 194 191 192 194 191 192 193 195 197 193 194 196 197 196 196 196 193 190 193 197 202 200 200 204 206 203 195 193 195 193
296 248 247 232 163 163 209 193 154 171 201 170 156 158 266 260 265 287 303 8 85 186 228 170 187 272 287 295 278 265 137 114 86 106 116 118 134 209 267 265 270 266 257 238 195 177 170 163 165 169 174 175 170 174 185 193 192 188 191 193 191 192 192 194 198 197 197 195 195 197 197 199 197 195 196 199 205 205 203 205 206 205 197 195 198 197
243 249 218 139 150 163 184 195 157 178 265 232 194 190 242 249 203 218 247 75 24 335 89 107 27 308 301 304 265 321 42 92 84 77 87 24 15 314 292 305 303 281 252 224 193 183 174 170 169 165 165 165 168 178 185 190 193 189 190 193 192 191 191 193 197 198 195 189 189 191 193 198 199 199 198 199 204 205 205 205 205 206 200 196 198 200
256 252 168 146 177 170 176 209 182 176 216 289 226 205 223 235 196 153 137 96 52 315 262 110 53 297 304 295 255 287 5 121 83 60 159 280 339 332 311 309 296 285 252 220 199 191 177 170 165 158 162 166 170 177 181 190 198 192 188 190 190 190 190 192 195 197 195 188 187 188 188 193 197 201 202 201 203 202 202 203 203 205 202 197 198 202
264 277 113 153 179 158 173 240 224 176 145 320 250 210 208 202 145 148 154 123 115 242 269 101 142 260 312 315 287 301 289 277 313 317 252 230 235 261 267 281 279 279 266 224 205 200 180 172 163 155 166 174 173 174 178 188 197 192 189 188 189 191 190 191 193 196 196 191 189 189 190 193 197 203 208 207 207 206 203 199 201 205 203 200 200 204
241 347 48 104 110 114 159 249 230 163 130 250 250 162 151 154 155 168 162 138 181 195 358 27 117 182 307 288 296 309 269 298 311 292 278 256 230 237 240 266 268 262 269 249 209 196 188 183 160 144 160 175 177 176 178 185 189 190 190 188 190 191 189 191 192 194 197 196 194 193 193 195 199 207 214 211 208 207 204 198 199 204 205 204 204 207
211 291 316 129 92 103 202 222 191 156 148 249 210 115 131 151 153 153 132 90 10 90 348 307 118 117 274 275 320 353 270 299 297 278 281 283 292 298 265 275 264 252 269 280 226 205 195 176 139 138 153 163 170 176 176 176 180 187 190 188 192 194 190 189 191 192 197 200 200 197 196 197 201 210 217 215 206 203 202 199 199 204 206 207 207 210
241 225 238 155 106 231 227 223 175 164 181 233 118 92 84 83 90 97 92 72 36 44 261 254 176 148 279 285 330 20 331 277 276 274 277 276 292 291 266 289 297 266 267 278 251 213 180 136 118 137 148 137 154 179 181 174 180 193 194 189 189 197 196 191 190 192 196 200 202 202 201 200 200 208 216 215 208 203 201 200 201 205 208 209 210 211
279 268 149 178 220 212 213 216 165 165 173 168 94 75 71 57 59 67 62 80 56 335 267 244 190 150 309 286 270 204 214 229 245 284 295 284 300 297 273 319 331 286 269 288 255 168 147 135 123 130 141 137 156 178 182 177 183 194 198 192 188 193 198 195 192 193 195 197 201 206 207 205 202 205 212 213 207 202 199 200 203 207 209 211 212 212
314 316 206 251 225 167 145 125 139 142 143 140 81 77 81 17 24 38 1 42 77 270 272 268 193 147 193 267 262 253 246 228 215 243 277 272 287 315 302 358 329 287 267 1 86 125 118 129 138 129 138 161 173 173 175 183 191 194 195 196 193 192 198 201 196 194 196 199 203 209 210 210 208 206 210 213 210 205 200 200 203 207 210 212 213 214
311 248 254 305 244 157 123 122 8 10 50 96 88 81 81 12 18 29 318 317 220 252 269 315 98 143 226 246 262 273 264 246 222 213 242 251 236 266 287 305 310 293 128 76 99 127 126 141 154 141 143 168 183 177 173 183 196 198 196 198 197 195 199 205 202 197 197 201 207 211 211 212 212 209 212 215 214 212 208 204 204 207 210 212 213 214
320 304 333 348 261 167 123 133 189 330 76 129 132 113 109 93 64 317 274 270 270 266 273 321 27 235 272 266 253 263 271 262 234 217 217 212 181 185 211 208 278 302 127 142 150 155 173 187 166 154 159 176 187 186 180 184 194 199 199 201 201 201 203 208 208 202 198 201 208 212 212 213 214 212 212 215 216 215 215 213 210 211 213 212 213 213
335 309 293 185 231 173 142 165 168 150 129 160 159 129 131 151 146 200 223 207 248 261 293 316 326 173 233 261 255 263 288 307 227 164 142 134 144 150 150 162 261 288 128 150 185 183 189 201 186 170 174 187 194 194 192 193 197 200 202 204 202 204 211 214 212 205 200 201 208 212 213 213 215 216 215 216 216 216 217 218 217 216 216 214 213 213
122 265 257 256 260 162 169 196 153 116 89 245 156 105 129 191 141 139 178 171 189 201 302 288 226 208 211 242 286 311 350 9 59 99 106 110 126 126 137 197 229 246 167 159 192 206 203 204 200 192 189 193 196 198 199 199 200 203 207 207 201 201 210 215 213 207 203 202 206 211 212 212 215 217 217 216 216 216 217 220 222 221 220 216 214 213
80 276 278 313 330 162 173 188 140 103 139 209 115 161 232 178 119 113 154 79 76 121 255 283 285 303 321 305 322 19 46 1 20 69 119 152 159 152 186 217 221 218 195 186 204 210 205 204 207 207 204 201 198 200 204 204 205 209 211 209 203 198 206 214 214 208 205 203 205 209 211 213 214 216 217 217 216 216 218 222 226 224 220 217 214 213
145 266 299 13 43 299 305 101 44 42 128 115 178 210 200 99 91 102 115 17 34 155 275 339 310 300 344 352 312 52 124 273 311 355 171 188 189 200 221 228 223 212 193 198 213 216 209 204 210 213 211 210 206 205 209 210 211 213 212 209 204 199 203 210 210 207 205 204 205 208 211 213 215 215 217 219 217 217 220 224 226 223 218 215 212 211
131 239 297 303 174 302 358 69 35 343 52 112 164 184 112 106 150 49 105 109 75 195 293 324 314 274 204 221 261 191 193 222 251 261 210 205 209 215 228 235 233 216 196 201 212 222 216 205 211 214 212 213 211 210 212 213 212 211 212 212 208 206 206 206 206 206 207 207 206 209 212 214 215 215 217 219 218 220 222 224 224 222 219 216 213 212
113 150 276 280 178 329 1 63 123 303 348 60 72 32 36 127 157 154 136 160 144 148 270 312 334 280 226 214 200 203 207 198 197 223 225 220 217 217 221 228 232 220 206 204 205 218 220 208 211 213 213 215 214 213 213 212 211 212 213 213 211 212 210 207 207 206 207 208 208 209 212 213 213 214 217 218 217 218 222 224 225 223 222 220 218 217
82 126 225 284 343 62 341 181 178 188 166 99 48 352 351 72 130 153 77 64 119 139 179 280 325 274 253 207 190 211 215 193 184 195 221 233 223 221 224 222 227 227 217 209 202 212 220 212 210 212 215 218 218 215 212 211 211 211 211 211 210 211 209 207 207 208 209 209 208 208 210 211 211 211 214 217 216 217 221 227 228 225 224 224 223 221
143 139 174 264 348 169 234 249 182 179 177 156 158 186 173 132 131 128 37 319 80 118 159 153 209 269 265 206 215 235 217 203 194 182 203 234 228 224 230 223 223 230 224 211 202 209 216 212 210 210 212 214 214 213 211 209 209 208 208 208 207 207 207 207 206 207 210 209 207 207 209 211 210 209 211 214 217 219 223 228 229 226 226 227 225 222
152 114 107 215 227 211 253 280 167 175 177 140 129 152 149 132 121 125 179 236 87 80 139 124 164 269 263 222 238 253 236 219 202 182 189 220 229 226 236 239 232 235 234 215 201 206 213 215 210 206 205 206 207 208 207 205 203 203 204 203 203 205 205 206 207 207 208 208 207 206 207 210 210 208 209 212 217 221 225 229 231 229 229 229 226 225
107 92 89 331 304 300 301 321 26 61 78 97 33 85 129 137 130 140 173 174 125 151 148 87 271 269 272 268 263 241 225 204 194 194 185 201 233 236 237 253 253 251 258 241 215 210 214 218 209 191 181 206 227 219 210 215 212 207 203 199 199 204 206 206 206 205 206 208 208 207 206 209 210 209 209 212 217 221 225 230 233 233 232 231 229 229
172 141 102 85 6 345 340 346 350 344 16 128 277 326 96 115 107 113 137 89 93 191 152 114 225 257 274 304 341 354 184 177 196 210 192 191 223 235 237 265 284 291 308 304 280 256 241 198 70 53 48 65 92 134 158 216 230 216 212 208 203 203 206 207 205 204 205 207 207 207 207 208 210 211 212 214 218 221 225 229 233 235 235 233 232 232
158 159 121 123 143 175 203 257 261 256 250 212 288 353 15 113 117 131 123 76 84 197 143 138 208 263 290 309 331 323 191 189 215 232 229 217 231 240 240 259 277 281 302 311 317 327 23 73 82 145 207 191 181 182 187 200 205 204 211 214 209 204 204 207 207 206 206 207 207 207 207 208 210 213 216 218 221 224 226 228 232 235 236 234 233 233
107 143 140 144 166 184 188 213 224 162 134 185 165 125 235 120 114 114 106 123 182 158 167 219 198 248 293 276 267 258 217 204 216 215 218 225 232 239 240 244 254 258 260 290 314 337 54 100 146 216 216 187 176 194 202 208 209 205 207 210 210 208 206 207 209 208 207 208 208 208 208 209 211 214 218 221 224 227 228 229 232 235 238 238 236 235
104 183 187 156 187 204 189 207 219 128 140 182 161 156 205 153 114 111 132 189 161 123 260 251 182 172 259 241 226 232 222 221 226 210 200 205 210 218 226 237 243 255 276 288 278 312 82 127 182 219 204 176 184 203 209 213 215 212 212 212 209 206 205 206 208 209 209 209 210 212 213 213 213 214 218 222 225 228 230 231 232 235 239 242 241 240
121 184 195 164 212 227 194 227 211 123 128 164 156 167 185 171 159 161 187 192 152 142 231 228 169 186 241 235 220 217 206 210 217 202 179 171 181 190 192 218 240 256 278 285 256 212 137 155 198 210 181 177 193 205 208 211 215 217 220 220 214 208 206 206 207 208 210 210 213 218 220 219 217 216 217 220 223 227 229 231 233 235 238 242 244 245
123 179 187 143 67 33 309 267 196 125 118 132 179 192 179 180 194 192 189 187 161 164 207 177 176 218 236 220 221 217 199 197 181 140 146 163 177 185 189 208 230 242 253 261 257 221 160 179 215 208 167 174 197 208 209 210 213 216 221 222 218 214 212 209 208 209 209 211 216 222 224 225 224 223 222 222 225 227 229 230 232 233 236 239 243 246
88 170 172 90 77 350 327 355 95 104 139 160 231 256 179 154 191 232 146 162 162 237 122 119 164 253 258 227 226 207 149 135 127 151 184 195 188 184 190 208 223 232 241 247 254 246 171 184 224 223 181 182 202 213 216 217 216 215 221 222 220 221 220 216 214 212 211 214 219 222 225 226 227 228 228 229 230 232 233 234 234 234 236 239 242 246
56 117 55 70 100 263 305 59 61 32 99 141 251 255 193 158 179 204 186 178 179 169 108 92 143 251 261 233 183 145 142 152 175 191 207 217 200 187 196 209 215 224 234 232 234 239 204 189 214 225 210 202 209 218 223 224 221 219 222 224 224 223 221 220 220 219 218 218 219 219 220 223 225 225 226 228 230 232 235 237 238 239 240 241 244 247
91 121 131 105 136 246 290 68 64 40 91 240 260 209 184 181 177 163 183 205 186 149 130 155 208 237 246 181 150 158 165 177 199 204 201 206 205 200 207 212 213 220 227 224 219 220 215 208 213 221 222 218 219 224 229 229 228 229 231 230 227 221 217 218 220 221 222 221 219 217 220 224 225 223 224 226 228 232 235 237 239 241 242 244 246 247
86 105 146 140 149 239 288 55 72 132 187 237 254 197 176 181 171 166 198 215 195 166 157 205 224 226 194 180 181 183 184 190 205 206 199 191 189 199 216 222 222 224 229 231 224 218 216 217 222 229 233 231 230 232 233 232 235 243 247 242 235 227 223 224 223 221 222 221 218 218 224 230 230 228 229 230 231 233 235 236 239 241 242 244 246 246
78 84 119 105 125 182 25 70 110 217 224 244 286 284 207 180 159 156 220 253 211 205 213 230 241 230 198 197 203 183 184 192 164 186 204 201 186 189 204 219 226 228 234 237 230 223 218 212 219 233 239 239 238 233 229 231 234 239 249 250 242 234 229 228 228 227 224 220 217 218 224 230 233 234 235 235 235 236 237 237 240 242 242 243 244 246
120 124 134 98 124 144 99 118 174 238 256 276 318 318 156 114 114 121 348 287 232 206 193 210 238 233 190 193 299 126 154 132 69 181 215 211 195 189 195 208 215 214 220 223 214 209 206 202 204 216 225 224 213 205 209 219 225 229 238 246 246 239 229 222 225 228 224 220 218 219 224 230 235 237 237 237 239 240 240 241 242 243 243 243 243 245
128 133 150 179 190 148 146 182 233 283 295 289 276 249 183 157 159 155 184 264 248 202 187 212 234 211 152 147 132 119 119 88 27 304 248 214 203 195 195 208 207 203 210 211 207 202 194 188 185 187 188 171 145 146 160 185 209 221 230 237 241 242 235 227 227 231 231 228 226 227 230 233 236 239 239 238 237 239 241 243 245 246 245 243 243 244
114 127 173 191 221 104 113 155 270 264 259 241 237 249 247 196 173 149 143 266 269 222 198 212 219 189 151 137 138 127 102 87 307 271 255 225 202 177 174 202 192 184 180 169 173 180 175 172 174 175 177 172 157 143 133 145 183 209 221 230 234 236 239 240 242 244 246 244 239 237 238 238 237 239 242 241 239 239 242 245 247 248 246 244 244 245
81 61 133 157 172 108 123 161 202 202 234 241 236 251 272 199 142 116 96 282 267 221 194 196 204 192 168 155 150 129 109 141 236 253 247 221 192 158 153 162 151 156 169 167 166 167 166 166 168 171 176 173 158 144 137 145 170 203 224 233 230 229 234 243 249 255 259 261 257 250 248 247 244 243 243 243 243 243 244 245 247 249 249 247 246 246
41 36 96 152 191 175 157 182 220 223 241 243 237 242 240 154 117 105 134 267 253 208 186 183 190 188 168 154 147 138 151 187 223 245 229 182 155 145 152 160 158 155 161 167 169 168 166 165 165 171 175 161 139 129 107 88 207 231 244 247 238 234 239 247 255 261 263 264 261 253 251 254 256 255 253 252 253 252 251 250 249 250 250 249 247 246
10 29 102 166 204 203 189 203 245 252 239 239 237 212 171 130 100 124 197 237 222 186 185 181 176 173 162 157 161 176 191 192 199 229 209 143 128 130 140 148 158 160 160 164 168 167 165 164 167 173 171 144 123 37 350 356 25 79 248 259 257 258 259 256 255 253 249 248 247 245 246 251 257 262 261 260 262 262 259 257 255 253 251 248 247 245
331 10 55 151 193 207 200 209 260 271 240 204 179 179 153 133 159 201 213 225 180 170 183 182 170 168 168 171 179 187 185 174 171 191 177 146 139 140 134 133 138 146 153 157 161 164 165 163 165 165 153 143 176 293 307 331 40 71 95 255 263 271 265 235 222 220 223 233 244 252 259 262 263 266 266 265 264 262 262 261 259 258 255 250 247 246
177 184 237 207 186 156 152 215 215 246 244 163 119 126 168 173 200 207 186 105 157 169 170 169 171 173 171 177 188 176 133 123 130 151 153 145 139 139 146 150 147 146 150 152 156 164 167 164 162 154 140 136 296 305 311 334 39 58 48 263 229 229 222 204 197 206 231 249 258 266 272 275 276 277 275 273 269 264 262 262 260 259 256 250 247 246
186 176 208 233 196 138 161 220 208 221 258 255 143 182 214 203 189 171 151 128 138 165 163 163 174 178 173 173 173 161 135 128 135 149 149 143 143 146 152 158 153 150 151 151 155 164 170 168 160 146 136 136 87 338 329 343 9 12 350 200 195 200 210 241 264 268 268 273 283 289 290 289 289 286 282 278 273 268 264 262 260 259 255 250 247 243
227 192 192 223 227 175 187 227 249 268 282 278 249 236 253 251 196 159 154 150 156 177 175 159 161 172 177 169 158 155 167 168 168 173 167 156 160 163 161 163 160 153 148 147 153 164 174 173 154 139 138 154 275 327 321 325 325 295 261 227 208 206 211 233 262 277 286 294 301 304 304 302 300 297 291 284 279 275 273 269 265 260 256 252 249 244
267 72 134 201 262 266 236 253 302 312 304 295 275 244 259 274 237 165 151 151 159 170 164 151 157 169 172 164 156 163 183 180 173 178 171 157 163 169 163 157 154 150 149 151 155 161 163 156 143 135 142 171 282 322 321 310 298 290 282 263 242 233 229 230 252 274 288 302 310 314 314 313 311 308 303 296 289 285 283 280 275 267 260 256 252 248
292 343 74 261 278 291 275 306 325 312 290 300 323 340 339 313 293 149 142 156 154 148 149 148 148 152 158 162 164 170 177 173 168 167 160 157 169 177 171 158 153 159 166 166 162 160 157 148 137 130 139 179 255 280 291 292 289 292 298 292 274 258 246 237 245 269 290 307 315 319 324 325 325 322 319 316 310 301 293 287 281 274 266 259 255 253
294 331 344 304 276 243 235 279 315 309 267 278 5 15 4 341 337 10 69 116 126 118 118 124 130 140 157 168 162 158 165 176 174 167 165 171 180 182 175 163 162 170 178 176 166 161 155 141 129 128 140 243 274 246 252 268 276 282 292 298 293 275 258 249 255 277 300 311 318 327 333 332 330 330 330 327 320 311 302 293 286 279 272 263 257 256
280 307 313 316 314 307 282 307 339 344 329 347 7 8 8 3 347 348 36 84 99 105 103 96 109 144 158 161 154 149 161 184 187 173 170 176 182 178 168 164 170 179 183 178 170 170 155 124 122 138 172 271 302 276 264 267 276 284 289 293 294 284 270 262 267 290 312 316 318 324 328 328 327 329 329 325 317 310 303 297 292 285 280 274 264 256
286 277 292 30 2 324 293 306 339 353 323 320 336 339 351 24 14 346 358 104 114 130 130 112 90 99 131 148 155 156 166 186 192 179 176 182 181 172 163 162 169 177 177 170 171 178 172 145 140 169 197 309 331 319 297 279 284 294 292 290 290 288 278 268 273 297 316 319 318 318 320 322 326 329 330 322 312 306 304 301 297 292 287 286 283 270
198 214 207 89 260 264 273 278 290 319 276 266 294 323 332 27 45 1 319 212 148 152 144 129 121 120 128 157 171 171 174 180 178 174 179 185 177 166 164 168 172 172 171 172 171 170 164 155 311 318 350 354 350 345 328 286 268 282 282 281 282 283 277 269 272 295 311 314 315 314 314 320 327 333 334 325 313 307 306 305 304 301 296 294 297 291